Location: Tucson
(32.2217°N, 110.9265°W)
Time: 20:09:14
(UTC-07:00)

A-11 Canister half - Pass Details

Date: 29 October 2021
Orbit: 1516 x 1684 km, 47.2° (Epoch: 28 November)

Event Time Altitude Azimuth Distance (km) Brightness Sun altitude
Rises 19:47:35 0° 289° (WNW) 4,923 12.7 -28.4°
Reaches altitude 10° 19:51:17 10° 299° (WNW) 3,922 11.9 -29.2°
Maximum altitude 20:00:06 33° 0° (N) 2,495 10.0 -31.0°
Enters shadow 20:02:45 29° 28° (NNE) 2,642 10.0 -31.6°
